This is the latest recevied weather packets stored in our database for station/object N5YHM-13. If no packets are shown the sender has not sent any weather packets the latest 1 day(s).
| Time | Temp. | Humidity | Pressure | Rain* | Wind** | Luminosity | Snow |
|---|---|---|---|---|---|---|---|
| 1778100040 | 29.44° C | 79% | 1013.5 hPa | 0 mm | - | 32 W/m² | - |
| 1778098828 | 28.89° C | 80% | 1013.6 hPa | 0 mm | - | 18 W/m² | - |
| 1778098222 | 29.44° C | 79% | 1013.8 hPa | 0 mm | - | 29 W/m² | - |
| 1778096397 | 28.33° C | 83% | 1014.4 hPa | 0 mm | - | 15 W/m² | - |
| 1778095790 | 28.89° C | 82% | 1014.7 hPa | 0 mm | - | 19 W/m² | - |
| 1778095179 | 28.89° C | 83% | 1014.6 hPa | 0 mm | - | 24 W/m² | - |
| 1778094875 | 28.33° C | 84% | 1014.6 hPa | 0 mm | - | 39 W/m² | - |
| 1778094268 | 28.33° C | 86% | 1014.8 hPa | 0 mm | - | 32 W/m² | - |
| 1778093663 | 28.33° C | 86% | 1015.2 hPa | 0 mm | - | 42 W/m² | - |
| 1778093360 | 28.33° C | 86% | 1015.3 hPa | 0 mm | - | 25 W/m² | - |
| 1778093056 | 27.78° C | 87% | 1015.1 hPa | 0 mm | - | 37 W/m² | - |
| 1778092448 | 27.78° C | 88% | 1015.4 hPa | 0 mm | - | 28 W/m² | - |
| 1778092146 | 27.78° C | 89% | 1015.2 hPa | 0 mm | - | 30 W/m² | - |
| 1778091843 | 27.22° C | 91% | 1015.4 hPa | 0 mm | - | 169 W/m² | - |
| 1778091540 | 26.67° C | 92% | 1015.6 hPa | 0 mm | - | 43 W/m² | - |
| 1778091238 | 27.22° C | 91% | 1015.7 hPa | 0 mm | - | 15 W/m² | - |
| 1778090935 | 27.22° C | 90% | 1015.8 hPa | 0 mm | - | 12 W/m² | - |
| 1778090328 | 27.22° C | 89% | 1015.8 hPa | 0 mm | - | 19 W/m² | - |
| 1778089722 | 27.22° C | 89% | 1015.9 hPa | 0 mm | - | 23 W/m² | - |
| 1778088511 | 26.67° C | 90% | 1015.8 hPa | 0 mm | - | 15 W/m² | - |
| 1778087904 | 27.22° C | 89% | 1016.2 hPa | 0 mm | - | 13 W/m² | - |
| 1778086994 | 27.22° C | 90% | 1016.2 hPa | 0 mm | - | 21 W/m² | - |
| 1778085784 | 26.67° C | 91% | 1016.2 hPa | 0 mm | - | 20 W/m² | - |
| 1778085481 | 26.67° C | 90% | 1016.2 hPa | 0 mm | - | 20 W/m² | - |
| 1778085176 | 26.67° C | 91% | 1016.1 hPa | 0 mm | - | 19 W/m² | - |
* Rain latest hour (hover to see other rain measurements)
** Current wind speed in m/s (hover to see current wind gust speed)